Tracking 29892 objects as of 21-Nov-2024
HD Live streaming from Space Station
objects crossing your sky now

IRS 1C

Track IRS 1C now!
10-day predictions
IRS 1C is classified as:


NORAD ID: 23751
Int'l Code: 1995-072A
Perigee: 820.6 km
Apogee: 822.2 km
Inclination: 99.0 °
Period: 101.2 minutes
Semi major axis: 7192 km
RCS: 4.565 m2 (large)
Launch date: December 28, 1995
Source: India (IND)
Launch site: TYURATAM MISSILE AND SPACE COMPLEX (TTMTR)

Carries advanced remote sensing cameras, third of series.
Your satellite tracking list
Your tracking list is empty




NASA's NSSDC Master Catalog

Two Line Element Set (TLE):
1 23751U 95072A   24325.93077501  .00000283  00000-0  14546-3 0  9995
2 23751  99.0243 319.1365 0001056  94.3466 265.7832 14.23286853500010
Source of the keplerian elements: AFSPC